This is the latest recevied weather packets stored in our database for station/object JG6YPS-13. If no packets are shown the sender has not sent any weather packets the latest 10 day(s).
| Time | Temp. | Humidity | Pressure | Rain* | Wind** | Luminosity | Snow |
|---|---|---|---|---|---|---|---|
| 1777904890 | 12.22° C | 80% | 1018.3 hPa | 0 mm | - | - | - |
| 1777904290 | 12.22° C | 79% | 1018 hPa | 0 mm | - | - | - |
| 1777903691 | 12.78° C | 77% | 1018 hPa | 0 mm | - | - | - |
| 1777903092 | 12.78° C | 77% | 1018 hPa | 0 mm | - | - | - |
| 1777902493 | 12.78° C | 77% | 1018.1 hPa | 0 mm | - | - | - |
| 1777901894 | 13.33° C | 75% | 1017.9 hPa | 0 mm | - | - | - |
| 1777901294 | 13.33° C | 75% | 1017.9 hPa | 0 mm | - | - | - |
| 1777900695 | 13.33° C | 76% | 1017.8 hPa | 0 mm | - | - | - |
| 1777900096 | 13.33° C | 73% | 1017.9 hPa | 0 mm | - | - | - |
| 1777899497 | 13.33° C | 74% | 1017.8 hPa | 0 mm | - | - | - |
| 1777898897 | 13.33° C | 75% | 1018 hPa | 0 mm | - | - | - |
| 1777898298 | 13.33° C | 76% | 1017.9 hPa | 0 mm | - | - | - |
| 1777897699 | 13.33° C | 74% | 1017.6 hPa | 0 mm | - | - | - |
| 1777897105 | 13.89° C | 71% | 1017.4 hPa | 0 mm | - | - | - |
| 1777896500 | 13.89° C | 72% | 1017.2 hPa | 0 mm | - | - | - |
| 1777895901 | 13.89° C | 70% | 1017.2 hPa | 0 mm | - | - | - |
| 1777895302 | 13.89° C | 72% | 1017.3 hPa | 0 mm | - | - | - |
| 1777894702 | 13.89° C | 70% | 1017.1 hPa | 0 mm | - | - | - |
| 1777894103 | 13.89° C | 67% | 1016.9 hPa | 0 mm | - | - | - |
| 1777893503 | 14.44° C | 67% | 1016.9 hPa | 0 mm | - | - | - |
| 1777892904 | 14.44° C | 65% | 1016.7 hPa | 0 mm | - | - | - |
| 1777892304 | 13.89° C | 66% | 1016.5 hPa | 0 mm | - | - | - |
| 1777891705 | 14.44° C | 62% | 1016.2 hPa | 0 mm | - | - | - |
| 1777891105 | 14.44° C | 60% | 1016 hPa | 0 mm | - | - | - |
| 1777890506 | 15° C | 59% | 1015.9 hPa | 0 mm | - | - | - |
* Rain latest hour (hover to see other rain measurements)
** Current wind speed in m/s (hover to see current wind gust speed)